Lid_Strength_Index
1 1 1 1 1 1 1 1 -0 -0 -0 -0 -0 -0 -0 -0 0 -0 0 1 1 1
1 1 1 1 1 1 0 0 0 -0 0 0 -0 -0 -1 0 0 -0 0 1 1 1
1 1 0 0 1 1 0 0 -0 0 0 0 -0 -0 -0 0 -0 0 0 1 1 1
1 1 0 1 1 0 -0 0 0 0 0 -0 -0 -1 0 0 0 1 1 1 0 1
1 1 1 1 0 0 0 -0 0 0 -0 0 -0 -0 0 1 0 1 1 1 1 1
1 1 1 1 0 0 0 0 -0 0 0 0 -0 1 0 0 1 1 1 1 1 1
1 1 1 1 1 1 0 0 0 0 0 0 0 0 0 0 0 1 1 0 0 0
1 1 1 0 1 0 0 0 0 0 0 0 0 1 1 0 1 1 1 1 0 0
1 1 1 1 1 1 1 1 1 1 1 1 1 1 2 1 1 0 1 1 1 0
1 1 1 1 1 1 1 1 1 1 1 1 1 2 2 1 0 1 1 1 1 1
1 1 1 1 1 1 1 1 1 1 1 1 1 6 4 2 0 0 1 0 1 1
1 2 2 2 2 1 1 1 1 1 1 1 1 7 6 2 1 1 1 0 0 0
1 1 2 2 1 1 1 1 1 1 1 2 1 8 8 5 1 1 1 1 0 5
1 1 1 1 1 1 1 1 1 1 1 1 2 6 9 9 2 1 1 1 1 2